Torna al catalogo

FENGYUN 1C DEB

AttivoPO
NORAD 31420·DEBRIS·🇨🇳 China

Lanciato May 10, 1999 da Taiyuan Satellite Launch Center

Loading…

Prossimi Passaggi (prossime 24 ore)

TLE

AggiornatoSource: Space-Track

Epoca: Sep 13, 2026, 09:50 UTC

1 31420U 99025BTG 26256.41029376  .00000769  00000-0  22364-3 0  9990
2 31420  97.5267 127.4639 0133635 201.4094 334.2109 14.41599601689501

Traccia FENGYUN 1C DEB in tempo reale con AllMySat

Download on the App Store